| time (UTC) | temp F | wind direction | speed knots | gust knots | rain 1hr in | rain 24hr in | rain mn in | humidity % | barometer mb |
| 20260509203627 | 64 | 266 | 6.1 | 13.0 | 0.00 | 0.00 | 0.00 | 7 | 1013.8 |
| 20260509202711 | 64 | 281 | 10.4 | 17.4 | 0.00 | 0.00 | 0.00 | 6 | 1013.9 |
| 20260509202627 | 64 | 281 | 10.4 | 17.4 | 0.00 | 0.00 | 0.00 | 6 | 1013.9 |
| 20260509201627 | 64 | 270 | 8.7 | 14.8 | 0.00 | 0.00 | 0.00 | 7 | 1014.0 |
| 20260509200628 | 63 | 234 | 3.5 | 16.5 | 0.00 | 0.00 | 0.00 | 9 | 1014.1 |
| 20260509195705 | 63 | 252 | 10.4 | 19.1 | 0.00 | 0.00 | 0.00 | 8 | 1014.1 |
| 20260509195627 | 63 | 252 | 10.4 | 19.1 | 0.00 | 0.00 | 0.00 | 8 | 1014.1 |
| 20260509194627 | 63 | 265 | 8.7 | 19.1 | 0.00 | 0.00 | 0.00 | 8 | 1014.1 |
| 20260509193627 | 63 | 274 | 6.1 | 14.8 | 0.00 | 0.00 | 0.00 | 10 | 1014.2 |
| 20260509192309 | 64 | 245 | 4.3 | 14.8 | 0.00 | 0.00 | 0.00 | 10 | 1014.2 |
| 20260509192226 | 64 | 245 | 4.3 | 14.8 | 0.00 | 0.00 | 0.00 | 10 | 1014.2 |
| 20260509191229 | 63 | 269 | 9.6 | 17.4 | 0.00 | 0.00 | 0.00 | 11 | 1014.2 |
| 20260509190226 | 63 | 262 | 7.0 | 13.0 | 0.00 | 0.00 | 0.00 | 12 | 1014.2 |
| 20260509185226 | 62 | 278 | 5.2 | 13.9 | 0.00 | 0.00 | 0.00 | 13 | 1014.3 |
| 20260509184226 | 63 | 252 | 6.1 | 13.0 | 0.00 | 0.00 | 0.00 | 10 | 1014.4 |
| 20260509183228 | 65 | 265 | 2.6 | 9.6 | 0.00 | 0.00 | 0.00 | 10 | 1014.4 |
| 20260509182226 | 65 | 316 | 1.7 | 8.7 | 0.00 | 0.00 | 0.00 | 9 | 1014.4 |
| 20260509181226 | 64 | 119 | 1.7 | 7.0 | 0.00 | 0.00 | 0.00 | 10 | 1014.5 |
| 20260509180226 | 64 | 104 | 2.6 | 7.8 | 0.00 | 0.00 | 0.00 | 7 | 1014.6 |
| 20260509175227 | 64 | 0 | 0.0 | 7.0 | 0.00 | 0.00 | 0.00 | 9 | 1014.6 |
| 20260509174226 | 63 | 37 | 2.6 | 7.8 | 0.00 | 0.00 | 0.00 | 6 | 1014.6 |
| 20260509173226 | 63 | 94 | 1.7 | 7.0 | 0.00 | 0.00 | 0.00 | 9 | 1014.6 |
| 20260509172226 | 63 | 55 | 1.7 | 7.0 | 0.00 | 0.00 | 0.00 | 8 | 1014.6 |
| 20260509171226 | 63 | 61 | 0.9 | 6.1 | 0.00 | 0.00 | 0.00 | 9 | 1014.6 |
| 20260509170228 | 62 | 70 | 0.9 | 6.1 | 0.00 | 0.00 | 0.00 | 10 | 1014.6 |
| 20260509165226 | 62 | 56 | 1.7 | 7.8 | 0.00 | 0.00 | 0.00 | 10 | 1014.5 |
| 20260509164226 | 62 | 61 | 0.9 | 8.7 | 0.00 | 0.00 | 0.00 | 9 | 1014.4 |
| 20260509163226 | 62 | 84 | 3.5 | 7.0 | 0.00 | 0.00 | 0.00 | 10 | 1014.4 |
| 20260509162229 | 62 | 69 | 2.6 | 8.7 | 0.00 | 0.00 | 0.00 | 10 | 1014.3 |
| 20260509161228 | 62 | 80 | 3.5 | 8.7 | 0.00 | 0.00 | 0.00 | 8 | 1014.3 |
| 20260509160227 | 61 | 20 | 2.6 | 7.0 | 0.00 | 0.00 | 0.00 | 7 | 1014.2 |
| 20260509155227 | 61 | 36 | 3.5 | 11.3 | 0.00 | 0.00 | 0.00 | 8 | 1014.2 |
| 20260509154226 | 61 | 40 | 4.3 | 13.0 | 0.00 | 0.00 | 0.00 | 7 | 1014.1 |
| 20260509153228 | 61 | 30 | 1.7 | 7.8 | 0.00 | 0.00 | 0.00 | 8 | 1014.1 |
| 20260509152226 | 62 | 46 | 1.7 | 5.2 | 0.00 | 0.00 | 0.00 | 7 | 1014.0 |
| 20260509150227 | 61 | 56 | 1.7 | 8.7 | 0.00 | 0.00 | 0.00 | 9 | 1014.0 |
| 20260509145226 | 60 | 41 | 1.7 | 9.6 | 0.00 | 0.00 | 0.00 | 7 | 1014.0 |
| 20260509144229 | 60 | 38 | 2.6 | 7.8 | 0.00 | 0.00 | 0.00 | 8 | 1013.9 |
| 20260509143226 | 59 | 44 | 3.5 | 9.6 | 0.00 | 0.00 | 0.00 | 9 | 1013.8 |
| 20260509142226 | 59 | 49 | 3.5 | 10.4 | 0.00 | 0.00 | 0.00 | 8 | 1013.7 |
| 20260509141226 | 58 | 39 | 6.1 | 11.3 | 0.00 | 0.00 | 0.00 | 8 | 1013.6 |
| 20260509140226 | 57 | 33 | 6.1 | 11.3 | 0.00 | 0.00 | 0.00 | 8 | 1013.5 |
| 20260509135226 | 57 | 32 | 5.2 | 13.9 | 0.00 | 0.00 | 0.00 | 8 | 1013.4 |
| 20260509134226 | 57 | 37 | 6.1 | 15.6 | 0.00 | 0.00 | 0.00 | 8 | 1013.4 |
| 20260509133226 | 57 | 34 | 6.1 | 15.6 | 0.00 | 0.00 | 0.00 | 8 | 1013.3 |
| 20260509132226 | 56 | 31 | 7.0 | 15.6 | 0.00 | 0.00 | 0.00 | 8 | 1013.3 |
| 20260509131226 | 56 | 28 | 5.2 | 13.9 | 0.00 | 0.00 | 0.00 | 8 | 1013.3 |
| 20260509130226 | 56 | 29 | 7.0 | 13.9 | 0.00 | 0.00 | 0.00 | 8 | 1013.1 |
| 20260509125226 | 56 | 31 | 7.0 | 15.6 | 0.00 | 0.00 | 0.00 | 8 | 1013.1 |
| 20260509124226 | 56 | 30 | 7.0 | 13.0 | 0.00 | 0.00 | 0.00 | 8 | 1013.0 |
| 20260509123228 | 56 | 22 | 7.8 | 14.8 | 0.00 | 0.00 | 0.00 | 8 | 1012.9 |
| 20260509122226 | 56 | 18 | 7.0 | 14.8 | 0.00 | 0.00 | 0.00 | 8 | 1012.8 |
| 20260509121226 | 56 | 16 | 7.8 | 16.5 | 0.00 | 0.00 | 0.00 | 8 | 1012.7 |
| 20260509120226 | 56 | 10 | 7.8 | 14.8 | 0.00 | 0.00 | 0.00 | 7 | 1012.7 |
| 20260509115226 | 56 | 9 | 7.0 | 14.8 | 0.00 | 0.00 | 0.00 | 7 | 1012.7 |
| 20260509114226 | 56 | 360 | 5.2 | 13.9 | 0.00 | 0.00 | 0.00 | 7 | 1012.7 |
| 20260509113226 | 56 | 6 | 7.8 | 13.9 | 0.00 | 0.00 | 0.00 | 7 | 1012.7 |
| 20260509112226 | 56 | 352 | 7.0 | 13.0 | 0.00 | 0.00 | 0.00 | 7 | 1012.7 |
| 20260509111226 | 56 | 357 | 7.8 | 16.5 | 0.00 | 0.00 | 0.00 | 7 | 1012.7 |
| 20260509110226 | 55 | 359 | 7.8 | 16.5 | 0.00 | 0.00 | 0.00 | 8 | 1012.7 |
| 20260509105226 | 55 | 353 | 8.7 | 16.5 | 0.00 | 0.00 | 0.00 | 8 | 1012.6 |
| 20260509104226 | 55 | 352 | 7.8 | 14.8 | 0.00 | 0.00 | 0.00 | 8 | 1012.7 |
| 20260509103226 | 56 | 348 | 7.8 | 15.6 | 0.00 | 0.00 | 0.00 | 9 | 1012.8 |
| 20260509102226 | 55 | 353 | 8.7 | 18.2 | 0.00 | 0.00 | 0.00 | 9 | 1012.8 |
| 20260509101226 | 56 | 339 | 8.7 | 19.1 | 0.00 | 0.00 | 0.00 | 9 | 1012.9 |
| 20260509100225 | 56 | 342 | 10.4 | 15.6 | 0.00 | 0.00 | 0.00 | 9 | 1012.8 |
| 20260509095226 | 56 | 334 | 8.7 | 17.4 | 0.00 | 0.00 | 0.00 | 9 | 1012.9 |
| 20260509094226 | 56 | 334 | 8.7 | 15.6 | 0.00 | 0.00 | 0.00 | 8 | 1013.0 |
| 20260509093227 | 56 | 339 | 8.7 | 15.6 | 0.00 | 0.00 | 0.00 | 9 | 1013.0 |
| 20260509092226 | 56 | 336 | 10.4 | 19.1 | 0.00 | 0.00 | 0.00 | 8 | 1013.0 |
| 20260509091226 | 56 | 333 | 10.4 | 20.0 | 0.00 | 0.00 | 0.00 | 8 | 1013.0 |
| 20260509090226 | 56 | 336 | 9.6 | 18.2 | 0.00 | 0.00 | 0.00 | 8 | 1013.0 |
| 20260509085227 | 56 | 339 | 10.4 | 19.1 | 0.00 | 0.00 | 0.00 | 8 | 1013.0 |
| 20260509084225 | 56 | 334 | 10.4 | 17.4 | 0.00 | 0.00 | 0.00 | 8 | 1013.1 |
| 20260509083225 | 56 | 328 | 10.4 | 19.1 | 0.00 | 0.00 | 0.00 | 8 | 1013.0 |
| 20260509081928 | 56 | 332 | 11.3 | 18.2 | 0.00 | 0.00 | 0.00 | 8 | 1013.1 |
| 20260509080928 | 56 | 333 | 10.4 | 17.4 | 0.00 | 0.00 | 0.00 | 9 | 1013.1 |
| 20260509075928 | 56 | 333 | 11.3 | 17.4 | 0.00 | 0.00 | 0.00 | 9 | 1012.9 |
| 20260509074928 | 56 | 326 | 12.2 | 19.1 | 0.00 | 0.00 | 0.00 | 9 | 1013.0 |
| 20260509073928 | 56 | 316 | 11.3 | 17.4 | 0.00 | 0.00 | 0.00 | 12 | 1013.1 |
| 20260509072928 | 56 | 322 | 13.0 | 20.0 | 0.00 | 0.00 | 0.00 | 12 | 1013.1 |
| 20260509071928 | 55 | 321 | 12.2 | 20.9 | 0.00 | 0.00 | 0.00 | 13 | 1013.2 |
| 20260509070928 | 55 | 315 | 11.3 | 22.6 | 0.00 | 0.00 | 0.00 | 14 | 1013.1 |
| 20260509065928 | 55 | 317 | 12.2 | 20.9 | 0.00 | 0.00 | 0.00 | 15 | 1013.2 |
| 20260509064929 | 55 | 308 | 13.0 | 21.7 | 0.00 | 0.00 | 0.00 | 15 | 1013.2 |
| 20260509063928 | 55 | 309 | 13.0 | 19.1 | 0.00 | 0.00 | 0.00 | 15 | 1013.2 |
| 20260509062931 | 55 | 313 | 10.4 | 20.9 | 0.00 | 0.00 | 0.00 | 15 | 1013.2 |
| 20260509061427 | 55 | 307 | 13.0 | 20.9 | 0.00 | 0.00 | 0.00 | 15 | 1013.1 |
| 20260509060427 | 56 | 310 | 13.0 | 21.7 | 0.00 | 0.00 | 0.00 | 14 | 1013.2 |
| 20260509055427 | 56 | 310 | 12.2 | 20.0 | 0.00 | 0.00 | 0.00 | 13 | 1013.2 |
| 20260509054427 | 56 | 307 | 13.0 | 20.9 | 0.00 | 0.00 | 0.00 | 13 | 1013.2 |
| 20260509053427 | 56 | 310 | 13.0 | 20.0 | 0.00 | 0.00 | 0.00 | 12 | 1013.2 |
| 20260509052427 | 57 | 312 | 12.2 | 19.1 | 0.00 | 0.00 | 0.00 | 12 | 1013.2 |
| 20260509051427 | 57 | 313 | 13.0 | 21.7 | 0.00 | 0.00 | 0.00 | 12 | 1013.2 |
| 20260509050427 | 57 | 319 | 11.3 | 19.1 | 0.00 | 0.00 | 0.00 | 12 | 1013.2 |
| 20260509045540 | 57 | 312 | 13.9 | 20.0 | 0.00 | 0.00 | 0.00 | 12 | 1013.3 |
| 20260509045427 | 57 | 312 | 13.9 | 20.0 | 0.00 | 0.00 | 0.00 | 12 | 1013.3 |
| 20260509044429 | 57 | 319 | 12.2 | 20.0 | 0.00 | 0.00 | 0.00 | 12 | 1013.2 |
| 20260509043543 | 57 | 312 | 13.0 | 19.1 | 0.00 | 0.00 | 0.00 | 13 | 1013.2 |
| 20260509043430 | 57 | 312 | 13.0 | 19.1 | 0.00 | 0.00 | 0.00 | 13 | 1013.2 |
| 20260509042427 | 57 | 317 | 11.3 | 17.4 | 0.00 | 0.00 | 0.00 | 14 | 1013.1 |
| 20260509041544 | 57 | 320 | 13.0 | 19.1 | 0.00 | 0.00 | 0.00 | 14 | 1013.1 |
| 20260509041428 | 57 | 320 | 13.0 | 19.1 | 0.00 | 0.00 | 0.00 | 14 | 1013.1 |
| 20260509040527 | 57 | 318 | 13.0 | 19.1 | 0.00 | 0.00 | 0.00 | 14 | 1013.0 |
| 20260509040431 | 57 | 318 | 13.0 | 19.1 | 0.00 | 0.00 | 0.00 | 14 | 1013.0 |
| 20260509035519 | 57 | 320 | 11.3 | 18.2 | 0.00 | 0.00 | 0.00 | 14 | 1012.9 |
| 20260509035427 | 57 | 320 | 11.3 | 18.2 | 0.00 | 0.00 | 0.00 | 14 | 1012.9 |
| 20260509034528 | 57 | 323 | 12.2 | 19.1 | 0.00 | 0.00 | 0.00 | 14 | 1012.8 |
| 20260509034428 | 57 | 323 | 12.2 | 19.1 | 0.00 | 0.00 | 0.00 | 14 | 1012.8 |
| 20260509033518 | 57 | 314 | 13.9 | 20.0 | 0.00 | 0.00 | 0.00 | 14 | 1012.7 |
| 20260509033428 | 57 | 314 | 13.9 | 20.0 | 0.00 | 0.00 | 0.00 | 14 | 1012.7 |
| 20260509032427 | 57 | 312 | 12.2 | 18.2 | 0.00 | 0.00 | 0.00 | 13 | 1012.7 |
| 20260509031427 | 57 | 311 | 13.0 | 18.2 | 0.00 | 0.00 | 0.00 | 13 | 1012.7 |
| 20260509030526 | 56 | 311 | 12.2 | 20.9 | 0.00 | 0.00 | 0.00 | 12 | 1012.6 |
| 20260509030427 | 56 | 311 | 12.2 | 20.9 | 0.00 | 0.00 | 0.00 | 12 | 1012.6 |
| 20260509025522 | 57 | 310 | 13.0 | 19.1 | 0.00 | 0.00 | 0.00 | 12 | 1012.5 |
| 20260509025428 | 57 | 310 | 13.0 | 19.1 | 0.00 | 0.00 | 0.00 | 12 | 1012.5 |
| 20260509024516 | 56 | 314 | 11.3 | 20.0 | 0.00 | 0.00 | 0.00 | 12 | 1012.4 |
| 20260509024432 | 56 | 314 | 11.3 | 20.0 | 0.00 | 0.00 | 0.00 | 12 | 1012.4 |
| 20260509023603 | 57 | 312 | 11.3 | 18.2 | 0.00 | 0.00 | 0.00 | 12 | 1012.3 |
| 20260509023427 | 57 | 312 | 11.3 | 18.2 | 0.00 | 0.00 | 0.00 | 12 | 1012.3 |
| 20260509022510 | 57 | 306 | 12.2 | 19.1 | 0.00 | 0.00 | 0.00 | 12 | 1012.2 |
| 20260509022427 | 57 | 306 | 12.2 | 19.1 | 0.00 | 0.00 | 0.00 | 12 | 1012.2 |
| 20260509021547 | 57 | 310 | 11.3 | 19.1 | 0.00 | 0.00 | 0.00 | 12 | 1012.1 |
| 20260509021427 | 57 | 310 | 11.3 | 19.1 | 0.00 | 0.00 | 0.00 | 12 | 1012.1 |
| 20260509020427 | 57 | 309 | 12.2 | 20.9 | 0.00 | 0.00 | 0.00 | 12 | 1012.1 |
| 20260509015427 | 58 | 317 | 11.3 | 19.1 | 0.00 | 0.00 | 0.00 | 11 | 1012.0 |
| 20260509014427 | 58 | 300 | 13.0 | 22.6 | 0.00 | 0.00 | 0.00 | 11 | 1012.0 |
| 20260509013512 | 58 | 298 | 15.6 | 21.7 | 0.00 | 0.00 | 0.00 | 11 | 1011.9 |
| 20260509013427 | 58 | 298 | 15.6 | 21.7 | 0.00 | 0.00 | 0.00 | 11 | 1011.9 |
| 20260509012547 | 58 | 301 | 14.8 | 23.5 | 0.00 | 0.00 | 0.00 | 11 | 1011.9 |
| 20260509012427 | 58 | 301 | 14.8 | 23.5 | 0.00 | 0.00 | 0.00 | 11 | 1011.9 |
| 20260509011427 | 59 | 293 | 13.9 | 23.5 | 0.00 | 0.00 | 0.00 | 11 | 1011.9 |
| 20260509010515 | 59 | 298 | 13.0 | 23.5 | 0.00 | 0.00 | 0.00 | 10 | 1012.0 |
| 20260509010427 | 59 | 298 | 13.0 | 23.5 | 0.00 | 0.00 | 0.00 | 10 | 1012.0 |
| 20260509005516 | 59 | 304 | 13.0 | 22.6 | 0.00 | 0.00 | 0.00 | 10 | 1011.9 |
| 20260509005430 | 59 | 304 | 13.0 | 22.6 | 0.00 | 0.00 | 0.00 | 10 | 1011.9 |
| 20260509004427 | 60 | 298 | 11.3 | 17.4 | 0.00 | 0.00 | 0.00 | 9 | 1012.0 |
| 20260509003427 | 60 | 297 | 11.3 | 21.7 | 0.00 | 0.00 | 0.00 | 9 | 1012.0 |
| 20260509002427 | 60 | 284 | 13.9 | 21.7 | 0.00 | 0.00 | 0.00 | 9 | 1011.9 |
| 20260509001523 | 60 | 297 | 9.6 | 22.6 | 0.00 | 0.00 | 0.00 | 9 | 1012.0 |
| 20260509001427 | 60 | 297 | 9.6 | 22.6 | 0.00 | 0.00 | 0.00 | 9 | 1012.0 |
| 20260509000522 | 60 | 287 | 13.0 | 22.6 | 0.00 | 0.00 | 0.00 | 9 | 1012.1 |
| 20260509000427 | 60 | 287 | 13.0 | 22.6 | 0.00 | 0.00 | 0.00 | 9 | 1012.1 |
| 20260508235512 | 61 | 290 | 11.3 | 24.3 | 0.00 | 0.00 | 0.00 | 9 | 1011.9 |
| 20260508235430 | 61 | 290 | 11.3 | 24.3 | 0.00 | 0.00 | 0.00 | 9 | 1011.9 |
| 20260508234504 | 61 | 278 | 6.1 | 17.4 | 0.00 | 0.00 | 0.00 | 9 | 1012.2 |
| 20260508234428 | 61 | 278 | 6.1 | 17.4 | 0.00 | 0.00 | 0.00 | 9 | 1012.2 |
| 20260508233428 | 61 | 277 | 11.3 | 18.2 | 0.00 | 0.00 | 0.00 | 7 | 1012.4 |
| 20260508232512 | 61 | 280 | 11.3 | 19.1 | 0.00 | 0.00 | 0.00 | 7 | 1012.3 |
| 20260508232428 | 61 | 280 | 11.3 | 19.1 | 0.00 | 0.00 | 0.00 | 7 | 1012.3 |
| 20260508231427 | 61 | 273 | 9.6 | 17.4 | 0.00 | 0.00 | 0.00 | 9 | 1012.4 |
| 20260508230427 | 62 | 272 | 11.3 | 21.7 | 0.00 | 0.00 | 0.00 | 7 | 1012.3 |
| 20260508225538 | 61 | 281 | 9.6 | 24.3 | 0.00 | 0.00 | 0.00 | 8 | 1012.3 |
| 20260508225428 | 61 | 281 | 9.6 | 24.3 | 0.00 | 0.00 | 0.00 | 8 | 1012.3 |
| 20260508224550 | 61 | 299 | 7.0 | 19.1 | 0.00 | 0.00 | 0.00 | 9 | 1012.4 |
| 20260508224427 | 61 | 299 | 7.0 | 19.1 | 0.00 | 0.00 | 0.00 | 9 | 1012.4 |
| 20260508223430 | 61 | 289 | 9.6 | 23.5 | 0.00 | 0.00 | 0.00 | 9 | 1012.5 |
| 20260508222427 | 61 | 289 | 8.7 | 19.1 | 0.00 | 0.00 | 0.00 | 9 | 1012.4 |
| 20260508221431 | 61 | 297 | 9.6 | 20.9 | 0.00 | 0.00 | 0.00 | 8 | 1012.6 |
| 20260508220427 | 62 | 262 | 12.2 | 20.0 | 0.00 | 0.00 | 0.00 | 9 | 1012.6 |
| 20260508215430 | 62 | 243 | 5.2 | 16.5 | 0.00 | 0.00 | 0.00 | 10 | 1012.7 |
| 20260508214530 | 62 | 282 | 7.0 | 19.1 | 0.00 | 0.00 | 0.00 | 10 | 1012.8 |
| 20260508214427 | 62 | 282 | 7.0 | 19.1 | 0.00 | 0.00 | 0.00 | 10 | 1012.8 |
| 20260508213428 | 61 | 286 | 6.1 | 17.4 | 0.00 | 0.00 | 0.00 | 11 | 1013.0 |
| 20260508212427 | 61 | 285 | 9.6 | 17.4 | 0.00 | 0.00 | 0.00 | 10 | 1013.0 |
| 20260508211428 | 61 | 287 | 7.0 | 17.4 | 0.00 | 0.00 | 0.00 | 11 | 1013.0 |
| 20260508210427 | 60 | 266 | 13.9 | 20.0 | 0.00 | 0.00 | 0.00 | 10 | 1013.1 |
| 20260508205428 | 61 | 296 | 7.8 | 17.4 | 0.00 | 0.00 | 0.00 | 9 | 1013.2 |
| 20260508204500 | 61 | 280 | 6.1 | 16.5 | 0.00 | 0.00 | 0.00 | 13 | 1013.3 |